Probability
0 0 0 0 0 0 0 0 0 0 0 0 0 0 0 0 0 0 0 0 0 0 0 0 0 1 1 2 2 2 2 1 2 4 5 6 7 7 8 9 8 6 6
0 0 0 0 0 0 0 0 0 0 0 0 0 0 0 0 0 0 0 0 0 0 0 1 1 0 1 2 3 3 2 1 2 4 6 7 7 7 7 8 9 7 6
0 0 0 0 0 0 0 0 0 0 0 0 0 0 0 0 0 0 0 0 0 0 0 1 1 0 1 2 3 3 2 2 3 4 5 7 8 7 8 8 9 9 8
0 0 0 0 0 0 0 0 0 0 0 0 0 0 0 0 0 0 0 0 0 0 0 1 1 0 0 1 2 3 2 2 3 5 5 7 8 9 9 10 10 10 9
0 0 0 0 0 0 0 0 0 0 0 0 0 0 0 0 0 0 0 0 0 0 0 0 0 0 0 0 1 2 2 2 2 4 5 7 8 9 9 10 10 9 10
0 0 0 0 0 0 0 0 0 0 0 0 0 0 0 0 0 0 0 0 0 0 0 0 0 0 0 0 0 1 1 1 1 2 4 7 8 8 8 9 8 8 9
0 0 0 0 0 0 0 0 0 0 0 0 0 0 0 0 0 0 0 0 0 0 0 0 0 0 0 0 0 0 0 0 0 0 2 5 6 6 6 7 8 8 7
0 0 0 0 0 0 0 0 0 0 0 0 0 0 0 0 0 0 0 0 0 0 0 0 0 0 0 1 1 0 0 0 0 0 0 2 5 5 4 6 9 9 8
0 0 0 0 0 0 0 0 0 0 0 0 0 0 0 0 0 0 0 0 0 0 0 0 1 1 1 2 1 0 0 0 0 0 0 1 4 4 3 5 7 9 9
0 0 0 0 0 0 0 0 0 0 0 0 0 0 0 0 0 0 0 0 0 0 0 0 1 1 1 2 2 0 0 0 0 0 0 1 2 3 4 5 6 8 9
0 0 0 0 0 0 0 0 0 0 0 0 0 0 0 0 0 0 0 0 0 0 0 0 1 1 1 2 2 1 0 0 0 0 0 0 2 3 3 4 5 6 7
0 0 0 0 0 0 0 0 0 0 0 0 0 0 0 0 0 0 0 0 0 0 0 0 0 0 1 2 2 1 0 0 0 0 0 1 2 3 3 4 4 6 6
0 0 0 0 0 0 0 0 0 0 0 0 0 0 0 0 0 0 0 0 0 0 0 0 0 0 0 1 1 0 0 0 0 0 0 1 3 4 4 5 6 7 8
0 0 0 0 0 0 0 0 0 0 0 0 0 0 0 0 0 0 0 0 0 0 0 0 0 0 0 0 1 0 0 0 0 0 0 1 3 4 4 5 6 8 9
0 0 0 0 0 0 0 0 0 0 0 0 0 0 0 0 0 0 0 0 0 0 0 0 0 0 0 0 1 1 1 0 0 0 0 1 2 2 2 2 3 5 6
0 0 0 0 0 0 0 0 0 0 0 0 0 0 0 0 0 0 0 0 0 0 0 0 0 0 0 0 1 2 2 1 0 0 0 0 0 0 0 0 1 2 3
0 0 0 0 0 0 0 0 0 0 0 0 0 0 0 0 0 0 0 0 0 0 0 0 0 0 0 0 1 2 2 1 0 0 0 0 0 0 0 0 0 1 2
0 0 0 0 0 0 0 0 0 0 0 0 0 0 0 0 0 0 0 0 0 0 0 0 0 0 0 0 0 1 1 1 0 0 0 0 0 0 0 0 0 0 1
0 0 0 0 0 0 0 0 0 0 0 0 0 0 0 0 0 0 0 0 0 0 0 0 0 0 0 0 0 0 0 0 0 0 0 0 0 0 0 0 0 0 0
0 0 0 0 0 0 0 0 0 0 0 0 0 0 0 0 0 0 0 0 0 0 0 0 0 0 0 0 0 0 0 0 0 0 0 0 0 0 0 0 0 0 0
0 0 0 0 0 0 0 0 0 0 0 0 0 0 0 0 0 0 0 0 0 0 0 0 0 0 0 0 0 0 0 0 0 0 1 1 1 0 0 0 0 0 0
0 0 0 0 0 0 0 0 0 0 0 0 0 0 0 0 0 0 0 0 0 0 0 0 0 0 0 0 0 0 0 0 0 1 2 2 1 0 0 0 0 0 0
0 0 0 0 0 0 0 0 0 0 0 0 0 0 0 0 0 0 0 0 0 0 0 0 0 0 0 0 0 0 0 0 0 1 2 2 1 0 0 0 0 0 0
0 0 0 0 0 0 0 0 0 0 0 0 0 0 0 0 0 0 0 0 0 0 0 0 0 0 0 0 0 0 0 0 0 0 1 1 1 0 0 0 0 0 0
0 0 0 0 0 0 0 0 0 0 0 0 0 0 0 0 0 0 0 0 0 0 0 0 0 0 0 0 0 0 0 0 0 0 0 1 1 0 0 0 0 0 0
0 0 0 0 0 0 0 0 0 0 0 0 0 0 0 0 0 0 0 0 0 0 0 0 0 0 0 0 0 0 0 0 0 0 0 0 0 0 0 0 0 0 0
Wind_Speed
3 3 2 2 3 3 3 3 3 3 3 3 4 4 4 3 2 2 2 5 5 3 2 2 2 3 3 4 4 5 5 4 3 3 3 3 3 4 5 6 8 8 9
3 3 3 3 3 3 3 3 4 3 3 2 3 3 3 3 3 1 2 3 4 4 2 1 1 2 2 3 4 4 5 5 4 3 3 4 4 5 6 7 8 8 8
4 4 4 4 3 4 4 4 5 4 4 4 4 4 2 2 2 2 1 1 2 4 4 3 2 1 2 2 3 3 4 4 5 4 3 4 5 5 6 7 7 7 7
5 4 3 3 4 4 4 3 3 4 4 4 3 3 2 2 2 2 1 1 1 1 3 4 3 2 1 2 2 2 3 3 4 4 4 4 5 5 6 7 7 6 6
6 4 3 3 4 4 4 5 4 3 4 4 3 2 2 2 2 3 3 2 2 1 2 3 3 2 2 1 2 2 2 2 3 3 3 4 4 5 5 6 6 6 6
6 5 3 4 4 3 4 4 4 4 3 3 4 3 2 1 1 2 2 2 2 3 2 2 1 2 2 1 1 2 2 2 2 2 2 3 4 5 5 5 5 5 5
5 4 4 3 3 3 4 4 4 5 4 4 3 3 3 2 2 1 2 2 3 3 2 2 0 1 1 1 1 1 1 1 1 1 1 2 4 5 5 5 4 4 5
5 5 4 3 3 2 4 4 4 3 4 4 3 3 3 4 4 3 2 2 3 2 3 3 2 1 1 2 1 1 1 1 1 1 1 2 4 5 5 5 4 4 5
3 4 4 4 3 3 3 3 4 4 3 4 3 3 2 2 4 3 3 3 3 2 2 2 3 3 3 2 2 1 1 1 1 1 0 2 4 4 4 5 4 4 5
4 4 4 4 4 3 3 4 4 3 3 3 3 3 2 1 1 3 4 3 3 2 2 2 3 3 3 2 3 3 2 1 1 1 1 1 3 4 4 5 5 5 5
3 4 4 4 4 3 4 4 4 4 3 3 3 3 3 3 2 1 3 4 4 3 2 2 1 2 2 2 2 2 1 1 1 2 2 2 2 4 4 5 6 6 6
2 3 3 3 3 3 4 4 3 4 3 3 3 2 2 2 3 2 2 3 3 3 3 1 1 1 1 2 2 2 1 0 1 2 2 2 3 3 4 4 6 6 7
2 2 3 3 3 3 4 4 4 3 3 4 3 2 2 2 2 2 2 3 3 3 3 2 1 1 2 1 1 1 1 1 2 2 3 3 3 3 4 4 5 6 7
1 2 2 2 3 3 4 3 3 3 3 4 4 4 2 2 2 2 1 2 3 3 3 3 2 2 1 1 1 1 2 2 3 3 3 3 4 4 4 4 5 6 6
2 2 2 2 2 3 3 3 2 3 3 3 3 4 3 3 3 2 1 1 1 2 3 3 3 3 2 1 1 1 1 2 3 3 3 4 4 5 5 4 5 5 6
2 1 2 2 2 2 3 3 2 3 3 2 1 2 3 2 3 3 2 2 1 1 2 3 3 3 3 4 4 2 2 3 3 3 4 4 5 5 6 5 5 5 5
1 1 2 2 3 3 2 2 2 3 3 4 3 3 3 3 3 3 3 2 2 1 2 3 3 4 4 4 4 3 2 2 2 4 4 4 5 6 6 6 6 6 5
2 2 3 3 3 3 3 3 3 3 3 4 4 4 4 3 3 3 2 3 2 2 1 4 4 4 4 4 3 3 4 3 2 3 4 4 5 5 5 6 6 5 5
2 2 3 3 3 3 3 3 4 4 3 3 3 4 4 4 4 3 3 3 3 4 2 3 4 3 3 3 3 4 4 4 4 3 3 3 5 5 4 5 5 5 5
2 2 2 2 3 3 4 4 4 5 4 4 3 3 2 2 3 4 3 3 4 4 4 3 3 3 3 3 2 3 3 3 4 4 3 3 4 5 5 4 5 5 6
2 2 3 3 3 3 4 5 5 6 5 4 4 3 2 2 2 3 2 2 3 3 3 3 3 3 3 3 2 2 3 3 3 3 3 3 3 3 3 4 5 5 6
1 2 2 2 3 3 5 7 6 6 5 5 4 3 2 1 2 4 5 5 5 4 3 3 3 3 4 4 3 3 3 3 3 3 3 4 3 3 3 2 4 4 5
0 1 1 1 1 1 4 6 8 6 5 4 4 3 4 3 4 3 5 6 7 8 7 4 4 4 4 4 3 4 3 3 4 4 3 4 3 3 3 4 5 5 4
1 1 1 1 0 1 3 5 8 5 5 4 3 3 3 3 4 5 5 5 4 5 6 4 4 4 4 4 3 4 4 4 4 4 2 3 3 3 4 3 4 4 4
1 2 2 2 2 1 2 4 6 4 4 4 3 3 3 2 5 8 5 5 5 5 7 7 8 9 10 10 7 2 2 2 3 4 3 2 3 3 3 3 3 3 3
3 2 2 2 2 2 3 3 4 3 4 4 3 2 3 3 5 7 4 4 5 6 6 7 7 8 7 7 8 5 3 3 3 3 2 1 2 3 4 3 2 2 2
Wind_Direction
25 5 42 12 5 6 5 341 346 359 357 354 356 3 358 358 13 75 114 129 131 128 110 63 32 19 12 22 25 23 25 41 58 82 118 135 132 135 141 146 145 142 144
35 14 22 18 12 1 358 355 360 353 346 349 356 353 352 347 359 31 128 140 152 156 146 111 54 33 18 19 21 20 25 39 50 64 109 131 126 122 131 137 138 142 146
40 32 14 10 6 4 6 6 359 352 355 2 359 351 359 357 345 3 45 152 163 171 169 150 109 67 35 26 23 24 28 34 41 59 104 127 130 128 129 134 138 144 150
46 42 17 6 12 10 3 5 6 1 356 358 350 340 347 345 346 359 353 15 134 148 172 172 152 117 75 32 24 25 27 31 48 71 97 125 131 132 133 138 143 149 156
29 38 24 14 17 17 5 5 10 0 350 341 325 331 346 351 359 1 10 19 27 63 109 160 167 159 140 86 32 28 24 38 60 82 94 110 127 133 131 136 147 152 156
22 21 27 24 19 18 2 4 359 354 347 338 346 349 307 309 33 12 6 14 11 29 50 95 156 183 167 126 41 45 34 34 71 93 108 128 136 140 137 137 141 146 152
23 17 24 23 24 24 10 8 3 355 353 354 359 340 332 18 49 47 27 15 18 23 14 37 90 113 150 158 40 42 45 47 74 109 116 168 156 150 147 147 148 154 159
26 18 21 12 18 24 11 7 10 359 350 7 7 355 355 358 2 14 28 30 20 14 9 15 22 50 98 120 110 63 31 31 60 91 138 183 164 160 164 166 166 168 171
40 14 17 8 8 24 18 11 15 14 356 353 18 35 29 355 329 338 10 28 17 19 8 360 18 24 48 74 96 99 46 21 39 43 54 140 154 165 175 180 188 189 184
48 22 15 8 14 25 23 10 22 3 9 356 350 11 31 4 346 335 342 356 358 17 7 2 20 25 39 59 79 79 61 12 347 313 258 190 181 193 200 200 203 204 198
53 35 15 10 13 21 24 24 14 10 10 6 358 354 354 351 349 19 326 335 342 344 351 20 23 20 23 43 87 90 84 29 358 329 283 247 221 216 216 217 217 219 211
51 39 20 13 18 20 20 13 13 13 8 4 1 3 2 1 348 356 335 329 329 322 334 358 16 351 16 47 46 76 59 295 313 317 301 283 263 243 231 227 224 224 217
49 35 32 17 22 21 18 13 8 360 8 10 4 354 352 346 342 352 350 326 323 315 337 351 4 18 19 52 60 42 279 246 255 273 277 279 275 262 255 248 240 235 230
58 39 37 34 34 26 17 13 4 354 15 9 2 1 349 340 351 356 347 341 330 327 344 338 343 3 4 20 28 290 283 252 250 264 253 250 257 262 261 260 255 251 247
47 28 18 44 45 39 25 11 12 3 12 5 1 3 353 341 345 335 347 355 337 325 321 331 338 339 345 350 332 285 300 275 256 254 249 247 249 252 252 252 254 253 249
34 2 20 32 37 42 42 24 6 360 358 347 353 356 345 340 339 337 336 327 315 275 297 308 316 323 336 340 343 333 320 301 272 244 248 256 255 252 249 245 246 254 253
34 27 30 29 31 27 40 31 2 2 354 348 353 0 348 345 336 335 337 333 329 325 295 300 316 326 338 335 333 333 324 302 293 266 260 268 267 260 252 241 236 236 238
27 19 35 31 24 20 22 18 355 359 353 348 346 349 345 350 347 337 334 332 328 321 316 308 313 321 323 319 326 333 333 333 313 287 277 274 281 283 257 240 228 226 227
28 26 28 26 24 20 16 7 356 350 349 346 344 346 350 359 354 342 341 340 331 330 324 307 300 307 313 322 336 333 333 328 324 310 294 290 290 295 278 247 230 226 226
13 13 19 23 24 23 22 7 1 346 339 335 331 333 351 11 358 344 341 342 339 331 318 311 304 306 305 312 342 334 328 327 326 324 327 312 297 296 292 274 251 237 228
7 15 17 19 14 20 22 15 354 335 333 326 326 334 349 9 348 325 325 326 330 315 312 316 310 314 315 329 326 314 321 316 317 324 336 328 317 307 297 282 265 248 236
11 18 11 17 9 16 19 10 352 333 325 320 322 330 326 330 316 316 314 306 295 292 296 298 307 309 307 311 316 321 322 329 316 317 334 317 317 310 303 286 264 251 240
142 22 342 358 27 33 0 351 343 327 314 315 322 327 329 354 354 334 317 309 306 297 284 282 282 286 295 300 313 315 307 300 286 284 310 302 303 299 297 304 290 265 246
172 188 263 284 306 306 336 338 334 318 303 304 312 326 332 359 5 358 338 329 310 303 289 278 269 274 285 284 276 277 277 291 292 295 292 289 299 296 301 305 299 282 267
196 225 237 246 245 233 299 321 330 309 302 307 313 336 355 18 354 350 339 324 318 308 304 300 292 286 284 282 277 283 292 294 294 292 289 276 297 309 304 294 293 288 279
206 221 236 243 246 217 242 286 314 304 309 311 313 328 1 343 334 339 331 322 316 307 310 309 302 294 287 282 279 252 230 245 271 283 285 306 299 318 310 293 300 302 282